START_TIME,STEP,MOV.,M35,t_acc.,PL05,t_acc.,PL06,t_acc.,PL07,t_acc.
1981-08-27 09:00:24.710 ,4,0,0.,4.8,0.,4.8,0.,4.8,0.,4.8
1981-08-27 09:00:29.510 ,4,0,0.,4.8,2.,4.8,1.,4.8,0.,4.8
1981-08-27 09:00:34.310 ,4,0,0.,4.8,0.,4.8,0.,4.8,0.,4.8
1981-08-27 09:00:39.110 ,4,0,0.,4.8,1.,4.8,0.,4.8,1.,4.8
1981-08-27 09:00:43.910 ,4,0,0.,4.8,1.,4.8,0.,4.8,0.,4.8
1981-08-27 09:00:48.710 ,3,0,0.,4.8,1.,4.8,0.,4.8,0.,4.8
1981-08-27 09:00:53.510 ,3,0,0.,4.8,1.,4.8,0.,4.8,0.,4.8
1981-08-27 09:00:58.310 ,3,0,0.,4.8,1.,4.8,0.,4.8,0.,4.8
1981-08-27 09:01:03.110 ,3,0,0.,4.8,2.,4.8,0.,4.8,0.,4.8
1981-08-27 09:01:07.910 ,3,0,0.,4.8,3.,4.8,0.,4.8,1.,4.8
1981-08-27 09:01:12.710 ,2,0,0.,4.8,1.,4.8,1.,4.8,0.,4.8
1981-08-27 09:01:17.510 ,2,0,0.,4.8,0.,4.8,0.,4.8,0.,4.8
1981-08-27 09:01:22.310 ,2,0,0.,4.8,2.,4.8,1.,4.8,0.,4.8
1981-08-27 09:01:27.110 ,2,0,0.,4.8,1.,4.8,1.,4.8,1.,4.8
1981-08-27 09:01:31.910 ,2,0,0.,4.8,2.,4.8,0.,4.8,0.,4.8
1981-08-27 09:01:36.710 ,1,0,0.,4.8,1.,4.8,1.,4.8,0.,4.8
1981-08-27 09:01:41.510 ,1,0,0.,4.8,2.,4.8,0.,4.8,0.,4.8
1981-08-27 09:01:46.310 ,1,0,0.,4.8,1.,4.8,0.,4.8,0.,4.8
1981-08-27 09:01:51.110 ,1,0,0.,4.8,2.,4.8,0.,4.8,0.,4.8
1981-08-27 09:01:55.910 ,1,0,0.,4.8,0.,4.8,0.,4.8,0.,4.8
1981-08-27 09:02:00.710 ,0,0,0.,4.8,2.,4.8,0.,4.8,1.,4.8
1981-08-27 09:02:05.510 ,0,0,0.,4.8,0.,4.8,1.,4.8,0.,4.8
1981-08-27 09:02:10.310 ,0,0,0.,4.8,2.,4.8,0.,4.8,0.,4.8
1981-08-27 09:02:15.110 ,0,0,0.,4.8,0.,4.8,0.,4.8,0.,4.8
1981-08-27 09:02:19.910 ,0,0,0.,4.8,0.,4.8,0.,4.8,0.,4.8
1981-08-27 09:02:24.710 ,0,0,0.,4.8,0.,4.8,0.,4.8,0.,4.8
1981-08-27 09:02:29.510 ,0,0,0.,4.8,2.,4.8,0.,4.8,0.,4.8
1981-08-27 09:02:34.310 ,0,0,0.,4.8,2.,4.8,0.,4.8,0.,4.8
1981-08-27 09:02:39.110 ,0,0,0.,4.8,1.,4.8,0.,4.8,0.,4.8
1981-08-27 09:02:43.910 ,0,0,0.,4.8,0.,4.8,0.,4.8,0.,4.8
1981-08-27 09:02:48.710 ,1,0,0.,4.8,1.,4.8,1.,4.8,0.,4.8
1981-08-27 09:02:53.510 ,1,0,0.,4.8,1.,4.8,0.,4.8,0.,4.8
1981-08-27 09:02:58.310 ,1,0,0.,4.8,2.,4.8,0.,4.8,1.,4.8
1981-08-27 09:03:03.110 ,1,0,0.,4.8,2.,4.8,0.,4.8,0.,4.8
1981-08-27 09:03:07.910 ,1,0,0.,4.8,1.,4.8,0.,4.8,0.,4.8
1981-08-27 09:03:12.700 ,2,0,0.,4.8,1.,4.8,1.,4.8,0.,4.8
1981-08-27 09:03:17.500 ,2,0,0.,4.8,0.,4.8,0.,4.8,0.,4.8
1981-08-27 09:03:22.300 ,2,0,0.,4.8,1.,4.8,0.,4.8,0.,4.8
1981-08-27 09:03:27.100 ,2,0,0.,4.8,1.,4.8,1.,4.8,0.,4.8
1981-08-27 09:03:31.900 ,2,0,0.,4.8,1.,4.8,0.,4.8,0.,4.8
1981-08-27 09:03:36.710 ,3,0,0.,4.8,0.,4.8,0.,4.8,0.,4.8
1981-08-27 09:03:41.510 ,3,0,0.,4.8,2.,4.8,0.,4.8,0.,4.8
1981-08-27 09:03:46.310 ,3,0,0.,4.8,2.,4.8,0.,4.8,0.,4.8
1981-08-27 09:03:51.100 ,3,0,0.,4.8,1.,4.8,0.,4.8,0.,4.8
1981-08-27 09:03:55.900 ,3,0,0.,4.8,2.,4.8,0.,4.8,0.,4.8
1981-08-27 09:04:00.710 ,4,0,0.,4.8,1.,4.8,0.,4.8,0.,4.8
1981-08-27 09:04:05.510 ,4,0,0.,4.8,2.,4.8,0.,4.8,0.,4.8
1981-08-27 09:04:10.300 ,4,0,0.,4.8,2.,4.8,1.,4.8,0.,4.8
1981-08-27 09:04:15.110 ,4,0,0.,4.8,2.,4.8,0.,4.8,0.,4.8
1981-08-27 09:04:19.900 ,4,0,0.,4.8,2.,4.8,0.,4.8,0.,4.8
1981-08-27 09:04:24.700 ,5,0,0.,4.8,0.,4.8,2.,4.8,0.,4.8
1981-08-27 09:04:29.510 ,5,0,0.,4.8,0.,4.8,0.,4.8,0.,4.8
1981-08-27 09:04:34.300 ,5,0,0.,4.8,2.,4.8,1.,4.8,0.,4.8
1981-08-27 09:04:39.110 ,5,0,0.,4.8,2.,4.8,1.,4.8,0.,4.8
1981-08-27 09:04:43.900 ,5,0,0.,4.8,0.,4.8,0.,4.8,0.,4.8
1981-08-27 09:04:48.700 ,6,0,0.,4.8,2.,4.8,0.,4.8,0.,4.8
1981-08-27 09:04:53.510 ,6,0,0.,4.8,0.,4.8,0.,4.8,0.,4.8
1981-08-27 09:04:58.300 ,6,0,0.,4.8,1.,4.8,0.,4.8,0.,4.8
1981-08-27 09:05:03.110 ,6,0,0.,4.8,0.,4.8,1.,4.8,0.,4.8
1981-08-27 09:05:07.900 ,6,0,0.,4.8,1.,4.8,0.,4.8,1.,4.8
1981-08-27 09:05:12.700 ,7,0,0.,4.8,2.,4.8,0.,4.8,0.,4.8
1981-08-27 09:05:17.510 ,7,0,0.,4.8,2.,4.8,0.,4.8,0.,4.8
1981-08-27 09:05:22.300 ,7,0,0.,4.8,0.,4.8,0.,4.8,0.,4.8
1981-08-27 09:05:27.110 ,7,0,0.,4.8,0.,4.8,0.,4.8,0.,4.8
1981-08-27 09:05:31.900 ,7,0,0.,4.8,0.,4.8,1.,4.8,0.,4.8
1981-08-27 09:05:36.700 ,7,0,0.,4.8,0.,4.8,0.,4.8,0.,4.8
1981-08-27 09:05:41.510 ,7,0,0.,4.8,1.,4.8,0.,4.8,0.,4.8
1981-08-27 09:05:46.300 ,7,0,0.,4.8,0.,4.8,0.,4.8,0.,4.8
1981-08-27 09:05:51.110 ,7,0,0.,4.8,0.,4.8,0.,4.8,0.,4.8
1981-08-27 09:05:55.900 ,7,0,0.,4.8,0.,4.8,0.,4.8,0.,4.8
1981-08-27 09:06:00.700 ,7,0,0.,4.8,1.,4.8,0.,4.8,0.,4.8
1981-08-27 09:06:05.510 ,7,0,0.,4.8,2.,4.8,0.,4.8,0.,4.8
1981-08-27 09:06:10.300 ,7,0,0.,4.8,0.,4.8,0.,4.8,0.,4.8
1981-08-27 09:06:15.110 ,7,0,0.,4.8,0.,4.8,0.,4.8,1.,4.8
1981-08-27 09:06:19.900 ,7,0,0.,4.8,0.,4.8,0.,4.8,3.,4.8
1981-08-27 09:06:24.700 ,6,0,0.,4.8,0.,4.8,0.,4.8,0.,4.8
1981-08-27 09:06:29.510 ,6,0,0.,4.8,1.,4.8,0.,4.8,0.,4.8
1981-08-27 09:06:34.300 ,6,0,0.,4.8,0.,4.8,0.,4.8,1.,4.8
1981-08-27 09:06:39.110 ,6,0,0.,4.8,1.,4.8,0.,4.8,0.,4.8
1981-08-27 09:06:43.900 ,6,0,0.,4.8,0.,4.8,2.,4.8,0.,4.8
1981-08-27 09:06:48.700 ,6,0,0.,4.8,0.,4.8,0.,4.8,0.,4.8
1981-08-27 09:06:53.510 ,6,0,0.,4.8,2.,4.8,0.,4.8,0.,4.8
1981-08-27 09:06:58.300 ,6,0,0.,4.8,2.,4.8,0.,4.8,0.,4.8
1981-08-27 09:07:03.110 ,6,0,0.,4.8,4.,4.8,0.,4.8,0.,4.8
1981-08-27 09:07:07.900 ,6,0,0.,4.8,1.,4.8,0.,4.8,0.,4.8
1981-08-27 09:07:12.700 ,5,0,0.,4.8,1.,4.8,0.,4.8,0.,4.8
1981-08-27 09:07:17.510 ,5,0,0.,4.8,5.,4.8,0.,4.8,0.,4.8
1981-08-27 09:07:22.300 ,5,0,0.,4.8,1.,4.8,0.,4.8,0.,4.8
1981-08-27 09:07:27.110 ,5,0,0.,4.8,0.,4.8,0.,4.8,1.,4.8
1981-08-27 09:07:31.900 ,5,0,0.,4.8,2.,4.8,2.,4.8,0.,4.8
1981-08-27 09:07:36.700 ,5,0,0.,4.8,0.,4.8,1.,4.8,0.,4.8
1981-08-27 09:07:41.510 ,5,0,0.,4.8,3.,4.8,0.,4.8,0.,4.8
1981-08-27 09:07:46.300 ,5,0,0.,4.8,2.,4.8,0.,4.8,0.,4.8
1981-08-27 09:07:51.110 ,5,0,0.,4.8,0.,4.8,0.,4.8,0.,4.8
1981-08-27 09:07:55.900 ,5,0,0.,4.8,1.,4.8,0.,4.8,0.,4.8
1981-08-27 09:08:00.700 ,4,0,0.,4.8,3.,4.8,0.,4.8,0.,4.8
1981-08-27 09:08:05.510 ,4,0,0.,4.8,1.,4.8,0.,4.8,0.,4.8
1981-08-27 09:08:10.300 ,4,0,0.,4.8,1.,4.8,1.,4.8,0.,4.8
1981-08-27 09:08:15.110 ,4,0,0.,4.8,2.,4.8,1.,4.8,0.,4.8
1981-08-27 09:08:19.900 ,4,0,0.,4.8,1.,4.8,0.,4.8,0.,4.8
1981-08-27 09:08:24.700 ,4,0,0.,4.8,0.,4.8,0.,4.8,0.,4.8
1981-08-27 09:08:29.510 ,4,0,0.,4.8,2.,4.8,0.,4.8,0.,4.8
1981-08-27 09:08:34.300 ,4,0,0.,4.8,0.,4.8,0.,4.8,1.,4.8
1981-08-27 09:08:39.100 ,4,0,0.,4.8,1.,4.8,0.,4.8,0.,4.8
1981-08-27 09:08:43.910 ,4,0,0.,4.8,2.,4.8,1.,4.8,0.,4.8
1981-08-27 09:08:48.710 ,3,0,0.,4.8,1.,4.8,0.,4.8,0.,4.8
1981-08-27 09:08:53.510 ,3,0,0.,4.8,2.,4.8,0.,4.8,0.,4.8
1981-08-27 09:08:58.300 ,3,0,0.,4.8,1.,4.8,0.,4.8,0.,4.8
1981-08-27 09:09:03.100 ,3,0,0.,4.8,3.,4.8,0.,4.8,0.,4.8
1981-08-27 09:09:07.910 ,3,0,0.,4.8,1.,4.8,0.,4.8,0.,4.8
1981-08-27 09:09:12.710 ,3,0,0.,4.8,3.,4.8,0.,4.8,0.,4.8
1981-08-27 09:09:17.510 ,3,0,0.,4.8,3.,4.8,0.,4.8,0.,4.8
1981-08-27 09:09:22.300 ,3,0,0.,4.8,0.,4.8,0.,4.8,1.,4.8
1981-08-27 09:09:27.100 ,3,0,0.,4.8,4.,4.8,3.,4.8,0.,4.8
1981-08-27 09:09:31.910 ,3,0,0.,4.8,1.,4.8,1.,4.8,0.,4.8
1981-08-27 09:09:36.710 ,2,0,0.,4.8,3.,4.8,0.,4.8,0.,4.8
1981-08-27 09:09:41.510 ,2,0,0.,4.8,3.,4.8,0.,4.8,0.,4.8
1981-08-27 09:09:46.300 ,2,0,0.,4.8,1.,4.8,1.,4.8,0.,4.8
1981-08-27 09:09:51.100 ,2,0,0.,4.8,0.,4.8,1.,4.8,0.,4.8
1981-08-27 09:09:55.910 ,2,0,0.,4.8,1.,4.8,0.,4.8,0.,4.8
1981-08-27 09:10:00.710 ,2,0,0.,4.8,5.,4.8,1.,4.8,0.,4.8
1981-08-27 09:10:05.510 ,2,0,0.,4.8,1.,4.8,0.,4.8,0.,4.8
1981-08-27 09:10:10.300 ,2,0,0.,4.8,2.,4.8,0.,4.8,0.,4.8
1981-08-27 09:10:15.100 ,2,0,0.,4.8,2.,4.8,0.,4.8,0.,4.8
1981-08-27 09:10:19.910 ,2,0,0.,4.8,2.,4.8,2.,4.8,1.,4.8
1981-08-27 09:10:24.710 ,1,0,0.,4.8,2.,4.8,1.,4.8,0.,4.8
1981-08-27 09:10:29.510 ,1,0,0.,4.8,2.,4.8,2.,4.8,0.,4.8
1981-08-27 09:10:34.300 ,1,0,0.,4.8,0.,4.8,0.,4.8,1.,4.8
1981-08-27 09:10:39.100 ,1,0,0.,4.8,1.,4.8,0.,4.8,1.,4.8
1981-08-27 09:10:43.910 ,1,0,0.,4.8,1.,4.8,0.,4.8,0.,4.8
1981-08-27 09:10:48.710 ,1,0,0.,4.8,0.,4.8,0.,4.8,0.,4.8
1981-08-27 09:10:53.510 ,1,0,0.,4.8,0.,4.8,0.,4.8,0.,4.8
1981-08-27 09:10:58.300 ,1,0,0.,4.8,2.,4.8,0.,4.8,0.,4.8
1981-08-27 09:11:03.100 ,1,0,0.,4.8,0.,4.8,0.,4.8,0.,4.8
1981-08-27 09:11:07.910 ,1,0,0.,4.8,0.,4.8,0.,4.8,0.,4.8
1981-08-27 09:11:12.710 ,0,0,0.,4.8,1.,4.8,0.,4.8,0.,4.8
1981-08-27 09:11:17.510 ,0,0,0.,4.8,1.,4.8,0.,4.8,0.,4.8
1981-08-27 09:11:22.300 ,0,0,0.,4.8,3.,4.8,1.,4.8,0.,4.8
1981-08-27 09:11:27.100 ,0,0,0.,4.8,0.,4.8,1.,4.8,0.,4.8
1981-08-27 09:11:31.910 ,0,0,0.,4.8,2.,4.8,0.,4.8,0.,4.8
1981-08-27 09:11:36.710 ,0,0,0.,4.8,0.,4.8,1.,4.8,0.,4.8
1981-08-27 09:11:41.510 ,0,0,0.,4.8,1.,4.8,0.,4.8,0.,4.8
1981-08-27 09:11:46.300 ,0,0,0.,4.8,3.,4.8,1.,4.8,1.,4.8
1981-08-27 09:11:51.100 ,0,0,0.,4.8,1.,4.8,0.,4.8,0.,4.8
1981-08-27 09:11:55.910 ,0,0,0.,4.8,1.,4.8,0.,4.8,0.,4.8
1981-08-27 09:12:00.710 ,0,0,0.,4.8,1.,4.8,0.,4.8,0.,4.8
1981-08-27 09:12:05.510 ,0,0,0.,4.8,3.,4.8,0.,4.8,0.,4.8
1981-08-27 09:12:10.300 ,0,0,0.,4.8,3.,4.8,0.,4.8,0.,4.8
1981-08-27 09:12:15.100 ,0,0,0.,4.8,2.,4.8,0.,4.8,0.,4.8
1981-08-27 09:12:19.910 ,0,0,0.,4.8,1.,4.8,1.,4.8,0.,4.8
1981-08-27 09:12:24.710 ,0,0,0.,4.8,1.,4.8,0.,4.8,0.,4.8
1981-08-27 09:12:29.510 ,0,0,0.,4.8,0.,4.8,0.,4.8,1.,4.8
1981-08-27 09:12:34.300 ,0,0,0.,4.8,2.,4.8,0.,4.8,0.,4.8
1981-08-27 09:12:39.100 ,0,0,0.,4.8,2.,4.8,0.,4.8,0.,4.8
1981-08-27 09:12:43.910 ,0,0,0.,4.8,5.,4.8,1.,4.8,1.,4.8
1981-08-27 09:12:48.710 ,1,0,0.,4.8,0.,4.8,0.,4.8,0.,4.8
1981-08-27 09:12:53.510 ,1,0,0.,4.8,2.,4.8,0.,4.8,0.,4.8
1981-08-27 09:12:58.300 ,1,0,0.,4.8,1.,4.8,0.,4.8,0.,4.8
1981-08-27 09:13:03.100 ,1,0,0.,4.8,0.,4.8,0.,4.8,0.,4.8
1981-08-27 09:13:07.910 ,1,0,0.,4.8,1.,4.8,0.,4.8,1.,4.8
1981-08-27 09:13:12.710 ,1,0,0.,4.8,1.,4.8,1.,4.8,0.,4.8
1981-08-27 09:13:17.510 ,1,0,0.,4.8,0.,4.8,0.,4.8,0.,4.8
1981-08-27 09:13:22.300 ,1,0,0.,4.8,2.,4.8,1.,4.8,1.,4.8
1981-08-27 09:13:27.100 ,1,0,0.,4.8,3.,4.8,0.,4.8,0.,4.8
1981-08-27 09:13:31.910 ,1,0,0.,4.8,1.,4.8,1.,4.8,0.,4.8
1981-08-27 09:13:36.710 ,2,0,0.,4.8,1.,4.8,0.,4.8,0.,4.8
1981-08-27 09:13:41.510 ,2,0,0.,4.8,1.,4.8,0.,4.8,0.,4.8
1981-08-27 09:13:46.300 ,2,0,0.,4.8,2.,4.8,0.,4.8,1.,4.8
1981-08-27 09:13:51.100 ,2,0,0.,4.8,2.,4.8,0.,4.8,1.,4.8
1981-08-27 09:13:55.910 ,2,0,0.,4.8,4.,4.8,0.,4.8,0.,4.8
1981-08-27 09:14:00.710 ,2,0,0.,4.8,3.,4.8,0.,4.8,0.,4.8
1981-08-27 09:14:05.510 ,2,0,0.,4.8,4.,4.8,0.,4.8,0.,4.8
1981-08-27 09:14:10.300 ,2,0,0.,4.8,1.,4.8,0.,4.8,0.,4.8
1981-08-27 09:14:15.100 ,2,0,0.,4.8,3.,4.8,0.,4.8,1.,4.8
1981-08-27 09:14:19.910 ,2,0,0.,4.8,0.,4.8,0.,4.8,0.,4.8
1981-08-27 09:14:24.710 ,3,0,0.,4.8,0.,4.8,1.,4.8,0.,4.8
1981-08-27 09:14:29.510 ,3,0,0.,4.8,0.,4.8,1.,4.8,0.,4.8
1981-08-27 09:14:34.300 ,3,0,0.,4.8,3.,4.8,0.,4.8,1.,4.8
1981-08-27 09:14:39.100 ,3,0,0.,4.8,1.,4.8,0.,4.8,0.,4.8
1981-08-27 09:14:43.910 ,3,0,0.,4.8,0.,4.8,0.,4.8,0.,4.8
1981-08-27 09:14:48.710 ,3,0,0.,4.8,3.,4.8,0.,4.8,0.,4.8
1981-08-27 09:14:53.510 ,3,0,0.,4.8,3.,4.8,0.,4.8,0.,4.8
1981-08-27 09:14:58.300 ,3,0,0.,4.8,0.,4.8,2.,4.8,0.,4.8
1981-08-27 09:15:03.100 ,3,0,0.,4.8,0.,4.8,1.,4.8,0.,4.8
1981-08-27 09:15:07.910 ,3,0,0.,4.8,2.,4.8,0.,4.8,0.,4.8
1981-08-27 09:15:12.710 ,4,0,0.,4.8,1.,4.8,0.,4.8,0.,4.8
1981-08-27 09:15:17.510 ,4,0,0.,4.8,3.,4.8,0.,4.8,0.,4.8
1981-08-27 09:15:22.300 ,4,0,0.,4.8,4.,4.8,1.,4.8,0.,4.8
1981-08-27 09:15:27.100 ,4,0,0.,4.8,0.,4.8,0.,4.8,1.,4.8
1981-08-27 09:15:31.910 ,4,0,0.,4.8,0.,4.8,1.,4.8,0.,4.8
1981-08-27 09:15:36.710 ,4,0,0.,4.8,2.,4.8,0.,4.8,0.,4.8
1981-08-27 09:15:41.510 ,4,0,0.,4.8,2.,4.8,0.,4.8,0.,4.8
1981-08-27 09:15:46.300 ,4,0,0.,4.8,1.,4.8,1.,4.8,0.,4.8
1981-08-27 09:15:51.100 ,4,0,0.,4.8,2.,4.8,0.,4.8,0.,4.8
1981-08-27 09:15:55.910 ,4,0,0.,4.8,3.,4.8,0.,4.8,0.,4.8
1981-08-27 09:16:00.710 ,5,0,0.,4.8,2.,4.8,1.,4.8,0.,4.8
1981-08-27 09:16:05.510 ,5,0,0.,4.8,0.,4.8,0.,4.8,0.,4.8
1981-08-27 09:16:10.300 ,5,0,0.,4.8,0.,4.8,0.,4.8,1.,4.8
1981-08-27 09:16:15.100 ,5,0,0.,4.8,2.,4.8,0.,4.8,0.,4.8
1981-08-27 09:16:19.910 ,5,0,0.,4.8,1.,4.8,0.,4.8,1.,4.8
1981-08-27 09:16:24.710 ,5,0,0.,4.8,0.,4.8,0.,4.8,0.,4.8
1981-08-27 09:16:29.510 ,5,0,0.,4.8,0.,4.8,0.,4.8,0.,4.8
1981-08-27 09:16:34.300 ,5,0,0.,4.8,2.,4.8,0.,4.8,0.,4.8
1981-08-27 09:16:39.100 ,5,0,0.,4.8,1.,4.8,0.,4.8,1.,4.8
1981-08-27 09:16:43.910 ,5,0,0.,4.8,1.,4.8,1.,4.8,0.,4.8
1981-08-27 09:16:48.710 ,6,0,0.,4.8,1.,4.8,0.,4.8,0.,4.8
1981-08-27 09:16:53.510 ,6,0,0.,4.8,2.,4.8,0.,4.8,0.,4.8
1981-08-27 09:16:58.300 ,6,0,0.,4.8,0.,4.8,0.,4.8,1.,4.8
1981-08-27 09:17:03.100 ,6,0,0.,4.8,1.,4.8,1.,4.8,0.,4.8
1981-08-27 09:17:07.910 ,6,0,0.,4.8,4.,4.8,0.,4.8,0.,4.8
1981-08-27 09:17:12.710 ,6,0,0.,4.8,1.,4.8,1.,4.8,0.,4.8
1981-08-27 09:17:17.510 ,6,0,0.,4.8,2.,4.8,0.,4.8,0.,4.8
1981-08-27 09:17:22.310 ,6,0,0.,4.8,0.,4.8,0.,4.8,0.,4.8
1981-08-27 09:17:27.110 ,6,0,0.,4.8,2.,4.8,1.,4.8,0.,4.8
1981-08-27 09:17:31.910 ,6,0,0.,4.8,1.,4.8,0.,4.8,0.,4.8
1981-08-27 09:17:36.710 ,7,0,0.,4.8,2.,4.8,1.,4.8,0.,4.8
1981-08-27 09:17:41.510 ,7,0,0.,4.8,1.,4.8,1.,4.8,0.,4.8
1981-08-27 09:17:46.310 ,7,0,0.,4.8,0.,4.8,0.,4.8,0.,4.8
1981-08-27 09:17:51.110 ,7,0,0.,4.8,0.,4.8,0.,4.8,0.,4.8
1981-08-27 09:17:55.910 ,7,0,0.,4.8,0.,4.8,0.,4.8,0.,4.8
1981-08-27 09:18:00.710 ,7,0,0.,4.8,0.,4.8,0.,4.8,0.,4.8
1981-08-27 09:18:05.510 ,7,0,0.,4.8,0.,4.8,0.,4.8,0.,4.8
1981-08-27 09:18:10.310 ,7,0,0.,4.8,0.,4.8,0.,4.8,0.,4.8
1981-08-27 09:18:15.110 ,7,0,0.,4.8,0.,4.8,0.,4.8,1.,4.8
1981-08-27 09:18:19.910 ,7,0,0.,4.8,1.,4.8,0.,4.8,0.,4.8
1981-08-27 09:18:24.710 ,7,0,0.,4.8,1.,4.8,1.,4.8,1.,4.8
1981-08-27 09:18:29.510 ,7,0,0.,4.8,0.,4.8,0.,4.8,0.,4.8
1981-08-27 09:18:34.310 ,7,0,0.,4.8,0.,4.8,0.,4.8,0.,4.8
1981-08-27 09:18:39.110 ,7,0,0.,4.8,0.,4.8,0.,4.8,0.,4.8
1981-08-27 09:18:43.910 ,7,0,0.,4.8,0.,4.8,0.,4.8,0.,4.8
1981-08-27 09:18:48.710 ,6,0,0.,4.8,0.,4.8,0.,4.8,0.,4.8
1981-08-27 09:18:53.510 ,6,0,0.,4.8,2.,4.8,0.,4.8,0.,4.8
1981-08-27 09:18:58.310 ,6,0,0.,4.8,0.,4.8,0.,4.8,0.,4.8
1981-08-27 09:19:03.110 ,6,0,0.,4.8,1.,4.8,0.,4.8,0.,4.8
1981-08-27 09:19:07.910 ,6,0,0.,4.8,2.,4.8,0.,4.8,0.,4.8
1981-08-27 09:19:12.710 ,5,0,0.,4.8,2.,4.8,0.,4.8,0.,4.8
1981-08-27 09:19:17.510 ,5,0,0.,4.8,1.,4.8,0.,4.8,0.,4.8
1981-08-27 09:19:22.310 ,5,0,0.,4.8,2.,4.8,0.,4.8,0.,4.8
1981-08-27 09:19:27.110 ,5,0,0.,4.8,2.,4.8,1.,4.8,1.,4.8
1981-08-27 09:19:31.910 ,5,0,0.,4.8,1.,4.8,0.,4.8,0.,4.8
1981-08-27 09:19:36.710 ,4,0,0.,4.8,0.,4.8,0.,4.8,0.,4.8
1981-08-27 09:19:41.510 ,4,0,0.,4.8,1.,4.8,1.,4.8,1.,4.8
1981-08-27 09:19:46.310 ,4,0,0.,4.8,1.,4.8,0.,4.8,0.,4.8
1981-08-27 09:19:51.110 ,4,0,0.,4.8,1.,4.8,1.,4.8,0.,4.8
1981-08-27 09:19:55.910 ,4,0,0.,4.8,2.,4.8,1.,4.8,0.,4.8
1981-08-27 09:20:00.700 ,3,0,0.,4.8,2.,4.8,0.,4.8,0.,4.8
1981-08-27 09:20:05.500 ,3,0,0.,4.8,2.,4.8,0.,4.8,0.,4.8
1981-08-27 09:20:10.300 ,3,0,0.,4.8,0.,4.8,0.,4.8,0.,4.8
1981-08-27 09:20:15.100 ,3,0,0.,4.8,3.,4.8,0.,4.8,0.,4.8
1981-08-27 09:20:19.900 ,3,0,0.,4.8,1.,4.8,1.,4.8,0.,4.8
1981-08-27 09:20:24.700 ,2,0,0.,4.8,0.,4.8,0.,4.8,0.,4.8
1981-08-27 09:20:29.500 ,2,0,0.,4.8,0.,4.8,0.,4.8,0.,4.8
1981-08-27 09:20:34.300 ,2,0,0.,4.8,1.,4.8,0.,4.8,0.,4.8
1981-08-27 09:20:39.100 ,2,0,0.,4.8,1.,4.8,0.,4.8,0.,4.8
1981-08-27 09:20:43.900 ,2,0,0.,4.8,2.,4.8,1.,4.8,0.,4.8
1981-08-27 09:20:48.700 ,1,0,0.,4.8,0.,4.8,0.,4.8,0.,4.8
1981-08-27 09:20:53.500 ,1,0,0.,4.8,2.,4.8,1.,4.8,0.,4.8
1981-08-27 09:20:58.300 ,1,0,0.,4.8,2.,4.8,0.,4.8,0.,4.8
1981-08-27 09:21:03.100 ,1,0,0.,4.8,2.,4.8,0.,4.8,0.,4.8
1981-08-27 09:21:07.900 ,1,0,0.,4.8,3.,4.8,0.,4.8,0.,4.8
1981-08-27 09:21:12.700 ,0,0,0.,4.8,3.,4.8,0.,4.8,0.,4.8
1981-08-27 09:21:17.500 ,0,0,0.,4.8,3.,4.8,0.,4.8,0.,4.8
1981-08-27 09:21:22.300 ,0,0,0.,4.8,1.,4.8,0.,4.8,0.,4.8
1981-08-27 09:21:27.100 ,0,0,0.,4.8,0.,4.8,0.,4.8,0.,4.8
1981-08-27 09:21:31.900 ,0,0,0.,4.8,3.,4.8,0.,4.8,0.,4.8
1981-08-27 09:21:36.700 ,0,0,0.,4.8,3.,4.8,0.,4.8,0.,4.8
1981-08-27 09:21:41.500 ,0,0,0.,4.8,1.,4.8,0.,4.8,0.,4.8
1981-08-27 09:21:46.300 ,0,0,0.,4.8,0.,4.8,0.,4.8,0.,4.8
1981-08-27 09:21:51.100 ,0,0,0.,4.8,1.,4.8,0.,4.8,0.,4.8
1981-08-27 09:21:55.900 ,0,0,0.,4.8,1.,4.8,0.,4.8,0.,4.8
1981-08-27 09:22:00.700 ,1,0,0.,4.8,2.,4.8,0.,4.8,1.,4.8
1981-08-27 09:22:05.500 ,1,0,0.,4.8,0.,4.8,0.,4.8,0.,4.8
1981-08-27 09:22:10.300 ,1,0,0.,4.8,0.,4.8,1.,4.8,0.,4.8
1981-08-27 09:22:15.100 ,1,0,0.,4.8,1.,4.8,1.,4.8,0.,4.8
1981-08-27 09:22:19.900 ,1,0,0.,4.8,0.,4.8,1.,4.8,0.,4.8
1981-08-27 09:22:24.700 ,2,0,0.,4.8,1.,4.8,0.,4.8,0.,4.8
1981-08-27 09:22:29.500 ,2,0,0.,4.8,0.,4.8,0.,4.8,1.,4.8
1981-08-27 09:22:34.300 ,2,0,0.,4.8,1.,4.8,0.,4.8,0.,4.8
1981-08-27 09:22:39.100 ,2,0,0.,4.8,1.,4.8,2.,4.8,0.,4.8
1981-08-27 09:22:43.900 ,2,0,0.,4.8,1.,4.8,0.,4.8,0.,4.8
1981-08-27 09:22:48.700 ,3,0,0.,4.8,1.,4.8,0.,4.8,0.,4.8
1981-08-27 09:22:53.500 ,3,0,0.,4.8,2.,4.8,0.,4.8,0.,4.8
1981-08-27 09:22:58.300 ,3,0,0.,4.8,3.,4.8,1.,4.8,1.,4.8
1981-08-27 09:23:03.100 ,3,0,0.,4.8,2.,4.8,0.,4.8,0.,4.8
1981-08-27 09:23:07.900 ,3,0,0.,4.8,0.,4.8,0.,4.8,0.,4.8
1981-08-27 09:23:12.700 ,4,0,0.,4.8,3.,4.8,0.,4.8,0.,4.8
1981-08-27 09:23:17.500 ,4,0,0.,4.8,2.,4.8,0.,4.8,0.,4.8
1981-08-27 09:23:22.300 ,4,0,0.,4.8,1.,4.8,0.,4.8,0.,4.8
1981-08-27 09:23:27.100 ,4,0,0.,4.8,1.,4.8,0.,4.8,1.,4.8
1981-08-27 09:23:31.900 ,4,0,0.,4.8,0.,4.8,0.,4.8,0.,4.8
1981-08-27 09:23:36.700 ,5,0,0.,4.8,3.,4.8,0.,4.8,0.,4.8
1981-08-27 09:23:41.500 ,5,0,0.,4.8,2.,4.8,0.,4.8,1.,4.8
1981-08-27 09:23:46.300 ,5,0,0.,4.8,1.,4.8,0.,4.8,0.,4.8
1981-08-27 09:23:51.100 ,5,0,0.,4.8,0.,4.8,0.,4.8,0.,4.8
1981-08-27 09:23:55.900 ,5,0,0.,4.8,2.,4.8,1.,4.8,0.,4.8
1981-08-27 09:24:00.700 ,6,0,0.,4.8,1.,4.8,0.,4.8,0.,4.8
1981-08-27 09:24:05.500 ,6,0,0.,4.8,3.,4.8,0.,4.8,0.,4.8
1981-08-27 09:24:10.300 ,6,0,0.,4.8,0.,4.8,0.,4.8,0.,4.8
1981-08-27 09:24:15.100 ,6,0,0.,4.8,2.,4.8,0.,4.8,0.,4.8
1981-08-27 09:24:19.900 ,6,0,0.,4.8,3.,4.8,0.,4.8,1.,4.8
1981-08-27 09:24:24.700 ,7,0,0.,4.8,0.,4.8,0.,4.8,0.,4.8
1981-08-27 09:24:29.500 ,7,0,0.,4.8,1.,4.8,0.,4.8,0.,4.8
1981-08-27 09:24:34.300 ,7,0,0.,4.8,2.,4.8,0.,4.8,0.,4.8
1981-08-27 09:24:39.100 ,7,0,0.,4.8,1.,4.8,0.,4.8,0.,4.8
1981-08-27 09:24:43.900 ,7,0,0.,4.8,0.,4.8,0.,4.8,0.,4.8
1981-08-27 09:24:48.700 ,7,0,0.,4.8,0.,4.8,0.,4.8,0.,4.8
1981-08-27 09:24:53.500 ,7,0,0.,4.8,0.,4.8,0.,4.8,0.,4.8
1981-08-27 09:24:58.300 ,7,0,0.,4.8,0.,4.8,0.,4.8,0.,4.8
1981-08-27 09:25:03.100 ,7,0,0.,4.8,0.,4.8,1.,4.8,1.,4.8
1981-08-27 09:25:07.900 ,7,0,0.,4.8,0.,4.8,0.,4.8,0.,4.8
1981-08-27 09:25:12.700 ,7,0,0.,4.8,0.,4.8,0.,4.8,0.,4.8
1981-08-27 09:25:17.500 ,7,0,0.,4.8,0.,4.8,0.,4.8,0.,4.8
1981-08-27 09:25:22.300 ,7,0,0.,4.8,0.,4.8,0.,4.8,0.,4.8
1981-08-27 09:25:27.100 ,7,0,0.,4.8,0.,4.8,0.,4.8,1.,4.8
1981-08-27 09:25:31.900 ,7,0,0.,4.8,0.,4.8,0.,4.8,0.,4.8
1981-08-27 09:25:36.700 ,6,0,0.,4.8,0.,4.8,0.,4.8,0.,4.8
1981-08-27 09:25:41.500 ,6,0,0.,4.8,0.,4.8,0.,4.8,0.,4.8
1981-08-27 09:25:46.300 ,6,0,0.,4.8,0.,4.8,0.,4.8,0.,4.8
1981-08-27 09:25:51.100 ,6,0,0.,4.8,2.,4.8,0.,4.8,0.,4.8
1981-08-27 09:25:55.900 ,6,0,0.,4.8,1.,4.8,0.,4.8,0.,4.8
1981-08-27 09:26:00.700 ,6,0,0.,4.8,1.,4.8,0.,4.8,0.,4.8
1981-08-27 09:26:05.500 ,6,0,0.,4.8,0.,4.8,0.,4.8,0.,4.8
1981-08-27 09:26:10.300 ,6,0,0.,4.8,0.,4.8,0.,4.8,0.,4.8
1981-08-27 09:26:15.100 ,6,0,0.,4.8,2.,4.8,0.,4.8,0.,4.8
1981-08-27 09:26:19.900 ,6,0,0.,4.8,1.,4.8,0.,4.8,0.,4.8
1981-08-27 09:26:24.700 ,5,0,0.,4.8,1.,4.8,0.,4.8,1.,4.8
1981-08-27 09:26:29.500 ,5,0,0.,4.8,2.,4.8,0.,4.8,0.,4.8
1981-08-27 09:26:34.300 ,5,0,0.,4.8,2.,4.8,0.,4.8,0.,4.8
1981-08-27 09:26:39.100 ,5,0,0.,4.8,3.,4.8,0.,4.8,0.,4.8
1981-08-27 09:26:43.900 ,5,0,0.,4.8,1.,4.8,0.,4.8,0.,4.8
1981-08-27 09:26:48.700 ,5,0,0.,4.8,0.,4.8,0.,4.8,0.,4.8
1981-08-27 09:26:53.500 ,5,0,0.,4.8,0.,4.8,0.,4.8,0.,4.8
1981-08-27 09:26:58.300 ,5,0,0.,4.8,0.,4.8,0.,4.8,0.,4.8
1981-08-27 09:27:03.100 ,5,0,0.,4.8,3.,4.8,0.,4.8,0.,4.8
1981-08-27 09:27:07.900 ,5,0,0.,4.8,1.,4.8,0.,4.8,0.,4.8
1981-08-27 09:27:12.700 ,4,0,0.,4.8,0.,4.8,0.,4.8,0.,4.8
1981-08-27 09:27:17.500 ,4,0,0.,4.8,1.,4.8,0.,4.8,0.,4.8
1981-08-27 09:27:22.300 ,4,0,0.,4.8,5.,4.8,0.,4.8,0.,4.8
1981-08-27 09:27:27.100 ,4,0,0.,4.8,2.,4.8,0.,4.8,0.,4.8
1981-08-27 09:27:31.900 ,4,0,0.,4.8,0.,4.8,0.,4.8,0.,4.8
1981-08-27 09:27:36.700 ,4,0,0.,4.8,1.,4.8,1.,4.8,0.,4.8
1981-08-27 09:27:41.500 ,4,0,0.,4.8,1.,4.8,0.,4.8,0.,4.8
1981-08-27 09:27:46.300 ,4,0,0.,4.8,2.,4.8,2.,4.8,0.,4.8
1981-08-27 09:27:51.100 ,4,0,0.,4.8,3.,4.8,1.,4.8,0.,4.8
1981-08-27 09:27:55.900 ,4,0,0.,4.8,2.,4.8,0.,4.8,0.,4.8
1981-08-27 09:28:00.700 ,3,0,0.,4.8,3.,4.8,0.,4.8,0.,4.8
1981-08-27 09:28:05.500 ,3,0,0.,4.8,0.,4.8,0.,4.8,0.,4.8
1981-08-27 09:28:10.300 ,3,0,0.,4.8,1.,4.8,0.,4.8,1.,4.8
1981-08-27 09:28:15.100 ,3,0,0.,4.8,0.,4.8,1.,4.8,0.,4.8
1981-08-27 09:28:19.900 ,3,0,0.,4.8,0.,4.8,0.,4.8,0.,4.8
1981-08-27 09:28:24.700 ,3,0,0.,4.8,2.,4.8,0.,4.8,0.,4.8
1981-08-27 09:28:29.500 ,3,0,0.,4.8,0.,4.8,0.,4.8,0.,4.8
1981-08-27 09:28:34.300 ,3,0,0.,4.8,4.,4.8,0.,4.8,0.,4.8
1981-08-27 09:28:39.100 ,3,0,0.,4.8,2.,4.8,0.,4.8,0.,4.8
1981-08-27 09:28:43.900 ,3,0,0.,4.8,0.,4.8,0.,4.8,0.,4.8
1981-08-27 09:28:48.700 ,2,0,0.,4.8,1.,4.8,1.,4.8,0.,4.8
1981-08-27 09:28:53.500 ,2,0,0.,4.8,0.,4.8,1.,4.8,0.,4.8
1981-08-27 09:28:58.300 ,2,0,0.,4.8,0.,4.8,0.,4.8,0.,4.8
1981-08-27 09:29:03.100 ,2,0,0.,4.8,2.,4.8,0.,4.8,1.,4.8
1981-08-27 09:29:07.900 ,2,0,0.,4.8,0.,4.8,0.,4.8,1.,4.8
1981-08-27 09:29:12.700 ,2,0,0.,4.8,3.,4.8,1.,4.8,0.,4.8
1981-08-27 09:29:17.500 ,2,0,0.,4.8,1.,4.8,0.,4.8,0.,4.8
1981-08-27 09:29:22.300 ,2,0,0.,4.8,0.,4.8,0.,4.8,0.,4.8
1981-08-27 09:29:27.100 ,2,0,0.,4.8,0.,4.8,0.,4.8,0.,4.8
1981-08-27 09:29:31.900 ,2,0,0.,4.8,2.,4.8,0.,4.8,0.,4.8
1981-08-27 09:29:36.700 ,1,0,0.,4.8,3.,4.8,0.,4.8,0.,4.8
1981-08-27 09:29:41.500 ,1,0,0.,4.8,1.,4.8,0.,4.8,0.,4.8
1981-08-27 09:29:46.300 ,1,0,0.,4.8,0.,4.8,0.,4.8,0.,4.8
1981-08-27 09:29:51.100 ,1,0,0.,4.8,2.,4.8,0.,4.8,0.,4.8
1981-08-27 09:29:55.900 ,1,0,0.,4.8,0.,4.8,0.,4.8,0.,4.8
1981-08-27 09:30:00.700 ,1,0,0.,4.8,3.,4.8,1.,4.8,1.,4.8
1981-08-27 09:30:05.500 ,1,0,0.,4.8,2.,4.8,1.,4.8,0.,4.8
1981-08-27 09:30:10.300 ,1,0,0.,4.8,1.,4.8,0.,4.8,0.,4.8
1981-08-27 09:30:15.100 ,1,0,0.,4.8,1.,4.8,0.,4.8,0.,4.8
1981-08-27 09:30:19.900 ,1,0,0.,4.8,2.,4.8,0.,4.8,1.,4.8
1981-08-27 09:30:24.700 ,0,0,0.,4.8,4.,4.8,1.,4.8,0.,4.8
1981-08-27 09:30:29.500 ,0,0,0.,4.8,3.,4.8,0.,4.8,0.,4.8
1981-08-27 09:30:34.300 ,0,0,0.,4.8,0.,4.8,0.,4.8,0.,4.8
1981-08-27 09:30:39.100 ,0,0,0.,4.8,0.,4.8,1.,4.8,0.,4.8
1981-08-27 09:30:43.900 ,0,0,0.,4.8,3.,4.8,1.,4.8,0.,4.8
1981-08-27 09:30:48.700 ,0,0,0.,4.8,1.,4.8,0.,4.8,0.,4.8
1981-08-27 09:30:53.500 ,0,0,0.,4.8,0.,4.8,0.,4.8,0.,4.8
1981-08-27 09:30:58.300 ,0,0,0.,4.8,0.,4.8,0.,4.8,0.,4.8
1981-08-27 09:31:03.100 ,0,0,0.,4.8,2.,4.8,1.,4.8,0.,4.8
1981-08-27 09:31:07.900 ,0,0,0.,4.8,1.,4.8,0.,4.8,0.,4.8
1981-08-27 09:31:12.700 ,0,0,0.,4.8,2.,4.8,0.,4.8,1.,4.8
1981-08-27 09:31:17.500 ,0,0,0.,4.8,1.,4.8,0.,4.8,0.,4.8
1981-08-27 09:31:22.300 ,0,0,0.,4.8,2.,4.8,0.,4.8,0.,4.8
1981-08-27 09:31:27.100 ,0,0,0.,4.8,1.,4.8,0.,4.8,0.,4.8
1981-08-27 09:31:31.900 ,0,0,0.,4.8,1.,4.8,0.,4.8,0.,4.8
1981-08-27 09:31:36.700 ,0,0,0.,4.8,0.,4.8,0.,4.8,0.,4.8
1981-08-27 09:31:41.500 ,0,0,0.,4.8,1.,4.8,0.,4.8,0.,4.8
1981-08-27 09:31:46.300 ,0,0,0.,4.8,0.,4.8,0.,4.8,0.,4.8
1981-08-27 09:31:51.100 ,0,0,0.,4.8,2.,4.8,0.,4.8,0.,4.8
1981-08-27 09:31:55.900 ,0,0,0.,4.8,1.,4.8,0.,4.8,0.,4.8
1981-08-27 09:32:00.700 ,1,0,0.,4.8,0.,4.8,1.,4.8,0.,4.8
1981-08-27 09:32:05.500 ,1,0,0.,4.8,1.,4.8,1.,4.8,0.,4.8
1981-08-27 09:32:10.300 ,1,0,0.,4.8,2.,4.8,0.,4.8,1.,4.8
1981-08-27 09:32:15.100 ,1,0,0.,4.8,2.,4.8,0.,4.8,1.,4.8
1981-08-27 09:32:19.900 ,1,0,0.,4.8,2.,4.8,0.,4.8,0.,4.8
1981-08-27 09:32:24.700 ,1,0,0.,4.8,1.,4.8,0.,4.8,0.,4.8
1981-08-27 09:32:29.500 ,1,0,0.,4.8,0.,4.8,0.,4.8,0.,4.8
1981-08-27 09:32:34.300 ,1,0,0.,4.8,0.,4.8,1.,4.8,1.,4.8
1981-08-27 09:32:39.100 ,1,0,0.,4.8,0.,4.8,0.,4.8,0.,4.8
1981-08-27 09:32:43.900 ,1,0,0.,4.8,2.,4.8,0.,4.8,0.,4.8
1981-08-27 09:32:48.700 ,2,0,0.,4.8,2.,4.8,0.,4.8,0.,4.8
1981-08-27 09:32:53.500 ,2,0,0.,4.8,1.,4.8,0.,4.8,0.,4.8
1981-08-27 09:32:58.300 ,2,0,0.,4.8,3.,4.8,0.,4.8,0.,4.8
1981-08-27 09:33:03.100 ,2,0,0.,4.8,0.,4.8,0.,4.8,0.,4.8
1981-08-27 09:33:07.900 ,2,0,0.,4.8,1.,4.8,0.,4.8,0.,4.8
1981-08-27 09:33:12.700 ,2,0,0.,4.8,3.,4.8,0.,4.8,0.,4.8
1981-08-27 09:33:17.500 ,2,0,0.,4.8,2.,4.8,0.,4.8,0.,4.8